Weather in Evdakovo

Russia / Voronezh Oblast     50°45′09″N   39°23′33″E
В апреле 2022 года жителям России запретили посещать сайт meteo.paraplan.net по решению Генеральной прокуратуры. Аудитория сайта уменьшилась в 10 раз. Владельцы сайта не видят смысла в поддержке погодного сервера в таких условиях. Сайт будет закрыт в октябре.
temp.,
°C
wind,
m/s
gust,
m/s
humid.,
%
clouds,
%
prec.,
mm/h
press.,
hPa
HPBL,
m
3 october, mon
mon300:00+18sse71572100 0.3 998779
03:00+15sse61591100 2.8 9961039
06:00+12sw71191100 10.8 997840
09:00+10sw81180100 11.1 10021192
12:00+10sw81472100 0.1 10061368
15:00+13sw8146853 0.2 10071527
18:00+12ssw6127153 0.2 1009439
21:00+11s612746 0.3 1011381
4 october, tue
tue400:00+10s613755 0.0 1012339
03:00+9s614745 0.0 1013341
06:00+9s5127747 0.0 1013257
09:00+12s61375100 0.0 1014662
12:00+15s8126273 0.1 10141426
15:00+15ssw6116591 0.7 10131108
18:00+13ssw467235 0.7 1014112
21:00+11ssw2376100 0.8 101658
5 october, wed
wed500:00+12sw3774100 0.0 1016189
03:00+10wsw497537 0.0 1017377
06:00+8sw4108335 0.0 1017303
09:00+10sw610745 0.0 1018693
12:00+11wsw796981 0.0 10191053
15:00+12wsw596867 0.1 1019989
18:00+10w497599 0.2 1020700
21:00+9w4982100 0.3 1021528
6 october, thu
thu600:00+7w4987100 0.0 1022339
03:00+6w488899 0.0 1023274
06:00+5wsw37968 0.0 1023183
09:00+8wsw4884100 0.0 1023328
12:00+13wsw696674 0.0 1023798
15:00+14w686415 0.0 1022947
18:00+12wsw497522 0.0 1022216
21:00+12wsw51176100 0.0 1022332
7 october, fri
fri700:00+12wsw512768 0.0 1022420
03:00+9wsw49905 0.0 1022201
06:00+8w49945 0.0 1022174
09:00+12wnw46830 0.0 1023309
12:00+16nw45650 0.0 1023821
15:00+17nw45530 0.0 10231149
18:00+13nw33640 0.0 102424
21:00+11nnw22720 0.0 102523